| time (UTC) | temp F | wind direction | speed MPH | gust MPH | rain 1hr in | rain 24hr in | rain mn in | humidity % | barometer mb |
| 20260506062500 | 57 | 225 | 19.0 | 27.0 | 0.00 | 0.00 | 0.00 | 86 | 29.9 |
| 20260506061500 | 57 | 220 | 15.0 | 31.0 | 0.00 | 0.00 | 0.00 | 86 | 29.8 |
| 20260506060500 | 57 | 221 | 15.0 | 27.0 | 0.00 | 0.00 | 0.00 | 85 | 29.9 |
| 20260506042500 | 58 | 220 | 18.0 | 27.0 | 0.00 | 0.00 | 0.00 | 84 | 29.9 |
| 20260506041500 | 58 | 228 | 16.0 | 30.0 | 0.00 | 0.00 | 0.00 | 84 | 29.9 |
| 20260506041000 | 58 | 232 | 17.0 | 26.0 | 0.00 | 0.00 | 0.00 | 83 | 29.9 |
| 20260506034500 | 58 | 238 | 18.0 | 27.0 | 0.00 | 0.00 | 0.00 | 83 | 29.9 |
| 20260506034000 | 58 | 221 | 18.0 | 27.0 | 0.00 | 0.00 | 0.00 | 83 | 29.9 |
| 20260506033500 | 58 | 218 | 13.0 | 21.0 | 0.00 | 0.00 | 0.00 | 83 | 29.9 |
| 20260506031500 | 57 | 218 | 16.0 | 18.0 | 0.00 | 0.00 | 0.00 | 83 | 29.9 |
| 20260506031000 | 58 | 214 | 17.0 | 22.0 | 0.00 | 0.00 | 0.00 | 83 | 29.9 |
| 20260506030500 | 58 | 215 | 11.0 | 28.0 | 0.00 | 0.00 | 0.00 | 83 | 29.9 |
| 20260506025000 | 58 | 221 | 11.0 | 21.0 | 0.00 | 0.00 | 0.00 | 83 | 29.9 |
| 20260506024500 | 58 | 217 | 21.0 | 27.0 | 0.00 | 0.00 | 0.00 | 83 | 29.9 |
| 20260506023500 | 58 | 218 | 18.0 | 25.0 | 0.00 | 0.00 | 0.00 | 83 | 29.9 |
| 20260506020500 | 58 | 233 | 18.0 | 30.0 | 0.00 | 0.00 | 0.00 | 82 | 29.9 |
| 20260506020000 | 59 | 227 | 19.0 | 31.0 | 0.00 | 0.00 | 0.00 | 81 | 29.9 |
| 20260506015500 | 58 | 214 | 10.0 | 29.0 | 0.00 | 0.00 | 0.00 | 81 | 29.9 |
| 20260506015001 | 58 | 214 | 11.0 | 21.0 | 0.00 | 0.00 | 0.00 | 81 | 29.9 |
| 20260506014501 | 58 | 219 | 13.0 | 19.0 | 0.00 | 0.00 | 0.00 | 81 | 29.9 |
| 20260506013500 | 59 | 210 | 15.0 | 28.0 | 0.00 | 0.00 | 0.00 | 80 | 29.9 |
| 20260506012500 | 58 | 211 | 25.0 | 29.0 | 0.00 | 0.00 | 0.00 | 80 | 29.9 |
| 20260506012000 | 58 | 220 | 17.0 | 29.0 | 0.00 | 0.00 | 0.00 | 80 | 29.9 |
| 20260506011500 | 59 | 211 | 15.0 | 25.0 | 0.00 | 0.00 | 0.00 | 79 | 29.9 |
| 20260506011000 | 59 | 208 | 15.0 | 24.0 | 0.00 | 0.00 | 0.00 | 78 | 29.9 |
| 20260506004000 | 60 | 211 | 20.0 | 36.0 | 0.00 | 0.00 | 0.00 | 77 | 29.8 |
| 20260506003500 | 59 | 210 | 24.0 | 31.0 | 0.00 | 0.00 | 0.00 | 77 | 29.8 |
| 20260506003000 | 60 | 212 | 19.0 | 29.0 | 0.00 | 0.00 | 0.00 | 77 | 29.8 |
| 20260506002500 | 60 | 211 | 13.0 | 34.0 | 0.00 | 0.00 | 0.00 | 77 | 29.8 |
| 20260506002000 | 59 | 219 | 21.0 | 30.0 | 0.00 | 0.00 | 0.00 | 77 | 29.8 |
| 20260506001500 | 60 | 211 | 21.0 | 31.0 | 0.00 | 0.00 | 0.00 | 77 | 29.8 |
| 20260506001000 | 60 | 203 | 20.0 | 31.0 | 0.00 | 0.00 | 0.00 | 77 | 29.8 |
| 20260506000500 | 60 | 201 | 8.0 | 25.0 | 0.00 | 0.00 | 0.00 | 77 | 29.8 |
| 20260506000000 | 60 | 219 | 19.0 | 29.0 | 0.00 | 0.00 | 0.00 | 77 | 29.8 |
| 20260505235500 | 60 | 207 | 18.0 | 34.0 | 0.00 | 0.00 | 0.00 | 77 | 29.8 |
| 20260505234500 | 60 | 198 | 13.0 | 32.0 | 0.00 | 0.00 | 0.00 | 76 | 29.8 |
| 20260505233000 | 60 | 215 | 22.0 | 31.0 | 0.00 | 0.00 | 0.00 | 76 | 29.8 |
| 20260505231000 | 60 | 223 | 17.0 | 46.0 | 0.00 | 0.00 | 0.00 | 76 | 29.8 |
| 20260505230500 | 60 | 204 | 16.0 | 41.0 | 0.00 | 0.00 | 0.00 | 77 | 29.8 |
| 20260505230000 | 60 | 212 | 16.0 | 38.0 | 0.00 | 0.00 | 0.00 | 77 | 29.8 |
| 20260505225000 | 60 | 219 | 13.0 | 25.0 | 0.00 | 0.00 | 0.00 | 77 | 29.8 |
| 20260505224500 | 60 | 219 | 18.0 | 31.0 | 0.00 | 0.00 | 0.00 | 77 | 29.8 |
| 20260505224000 | 60 | 214 | 13.0 | 30.0 | 0.00 | 0.00 | 0.00 | 77 | 29.8 |
| 20260505223500 | 60 | 218 | 19.0 | 35.0 | 0.00 | 0.00 | 0.00 | 77 | 29.8 |
| 20260505222500 | 60 | 205 | 17.0 | 36.0 | 0.00 | 0.00 | 0.00 | 76 | 29.8 |
| 20260505221500 | 60 | 215 | 27.0 | 30.0 | 0.00 | 0.00 | 0.00 | 76 | 29.8 |
| 20260505221000 | 60 | 202 | 16.0 | 25.0 | 0.00 | 0.00 | 0.00 | 76 | 29.8 |
| 20260505220500 | 61 | 195 | 26.0 | 33.0 | 0.00 | 0.00 | 0.00 | 75 | 29.8 |
| 20260505220000 | 60 | 199 | 19.0 | 29.0 | 0.00 | 0.00 | 0.00 | 75 | 29.8 |
| 20260505215500 | 60 | 206 | 20.0 | 26.0 | 0.00 | 0.00 | 0.00 | 75 | 29.8 |
| 20260505215000 | 60 | 210 | 19.0 | 30.0 | 0.00 | 0.00 | 0.00 | 76 | 29.8 |
| 20260505214501 | 60 | 221 | 17.0 | 26.0 | 0.00 | 0.00 | 0.00 | 75 | 29.8 |
| 20260505213500 | 60 | 202 | 16.0 | 27.0 | 0.00 | 0.00 | 0.00 | 75 | 29.8 |
| 20260505213000 | 60 | 197 | 18.0 | 30.0 | 0.00 | 0.00 | 0.00 | 74 | 29.8 |
| 20260505212000 | 61 | 192 | 15.0 | 31.0 | 0.00 | 0.00 | 0.00 | 74 | 29.8 |
| 20260505211500 | 61 | 197 | 8.0 | 32.0 | 0.00 | 0.00 | 0.00 | 73 | 29.8 |
| 20260505211000 | 61 | 216 | 25.0 | 32.0 | 0.00 | 0.00 | 0.00 | 74 | 29.8 |
| 20260505210500 | 61 | 194 | 10.0 | 32.0 | 0.00 | 0.00 | 0.00 | 74 | 29.8 |
| 20260505210000 | 61 | 186 | 12.0 | 33.0 | 0.00 | 0.00 | 0.00 | 74 | 29.8 |
| 20260505205500 | 61 | 215 | 23.0 | 31.0 | 0.00 | 0.00 | 0.00 | 74 | 29.8 |
| 20260505205000 | 61 | 200 | 26.0 | 28.0 | 0.00 | 0.00 | 0.00 | 73 | 29.8 |
| 20260505204500 | 61 | 193 | 5.0 | 29.0 | 0.00 | 0.00 | 0.00 | 74 | 29.8 |
| 20260505204000 | 61 | 196 | 26.0 | 30.0 | 0.00 | 0.00 | 0.00 | 74 | 29.8 |
| 20260505203500 | 61 | 207 | 27.0 | 31.0 | 0.00 | 0.00 | 0.00 | 74 | 29.8 |
| 20260505203000 | 61 | 206 | 16.0 | 29.0 | 0.00 | 0.00 | 0.00 | 75 | 29.8 |
| 20260505202500 | 60 | 214 | 15.0 | 26.0 | 0.00 | 0.00 | 0.00 | 76 | 29.8 |
| 20260505202001 | 60 | 207 | 15.0 | 23.0 | 0.00 | 0.00 | 0.00 | 76 | 29.8 |
| 20260505201501 | 60 | 224 | 21.0 | 26.0 | 0.00 | 0.00 | 0.00 | 77 | 29.8 |
| 20260505201000 | 60 | 212 | 18.0 | 27.0 | 0.00 | 0.00 | 0.00 | 76 | 29.8 |
| 20260505195500 | 60 | 223 | 27.0 | 30.0 | 0.00 | 0.00 | 0.00 | 76 | 29.8 |
| 20260505195000 | 61 | 230 | 6.0 | 24.0 | 0.00 | 0.00 | 0.00 | 76 | 29.8 |
| 20260505194501 | 61 | 215 | 8.0 | 14.0 | 0.00 | 0.00 | 0.00 | 77 | 29.8 |
| 20260505194000 | 60 | 210 | 8.0 | 17.0 | 0.00 | 0.00 | 0.00 | 77 | 29.8 |
| 20260505193500 | 61 | 216 | 18.0 | 22.0 | 0.00 | 0.00 | 0.00 | 76 | 29.8 |
| 20260505193000 | 61 | 216 | 12.0 | 19.0 | 0.00 | 0.00 | 0.00 | 76 | 29.8 |
| 20260505192500 | 61 | 217 | 13.0 | 21.0 | 0.00 | 0.00 | 0.00 | 77 | 29.8 |
| 20260505192000 | 60 | 245 | 16.0 | 19.0 | 0.00 | 0.00 | 0.00 | 77 | 29.8 |
| 20260505191500 | 60 | 207 | 17.0 | 27.0 | 0.00 | 0.00 | 0.00 | 77 | 29.8 |
| 20260505191000 | 60 | 222 | 13.0 | 27.0 | 0.00 | 0.00 | 0.00 | 77 | 29.8 |
| 20260505190500 | 60 | 208 | 9.0 | 21.0 | 0.00 | 0.00 | 0.00 | 77 | 29.8 |
| 20260505190000 | 61 | 237 | 14.0 | 22.0 | 0.00 | 0.00 | 0.00 | 76 | 29.8 |
| 20260505185500 | 60 | 242 | 11.0 | 23.0 | 0.00 | 0.00 | 0.00 | 78 | 29.8 |
| 20260505185000 | 60 | 226 | 11.0 | 19.0 | 0.00 | 0.00 | 0.00 | 78 | 29.8 |
| 20260505184500 | 60 | 214 | 12.0 | 25.0 | 0.00 | 0.00 | 0.00 | 77 | 29.8 |
| 20260505184000 | 60 | 252 | 12.0 | 16.0 | 0.00 | 0.00 | 0.00 | 78 | 29.8 |
| 20260505183500 | 60 | 256 | 9.0 | 16.0 | 0.00 | 0.00 | 0.00 | 77 | 29.8 |
| 20260505183000 | 60 | 210 | 6.0 | 13.0 | 0.00 | 0.00 | 0.00 | 79 | 29.8 |
| 20260505182500 | 59 | 219 | 10.0 | 15.0 | 0.00 | 0.00 | 0.00 | 79 | 29.8 |
| 20260505182000 | 59 | 251 | 15.0 | 25.0 | 0.00 | 0.00 | 0.00 | 79 | 29.8 |
| 20260505181500 | 59 | 165 | 5.0 | 17.0 | 0.00 | 0.00 | 0.00 | 80 | 29.8 |
| 20260505181000 | 59 | 199 | 19.0 | 21.0 | 0.00 | 0.00 | 0.00 | 79 | 29.8 |
| 20260505180500 | 60 | 205 | 13.0 | 18.0 | 0.00 | 0.00 | 0.00 | 78 | 29.8 |
| 20260505180000 | 59 | 216 | 18.0 | 23.0 | 0.00 | 0.00 | 0.00 | 79 | 29.8 |
| 20260505175500 | 59 | 206 | 12.0 | 26.0 | 0.00 | 0.00 | 0.00 | 79 | 29.8 |
| 20260505175000 | 60 | 188 | 7.0 | 14.0 | 0.00 | 0.00 | 0.00 | 80 | 29.8 |
| 20260505174500 | 59 | 197 | 17.0 | 21.0 | 0.00 | 0.00 | 0.00 | 79 | 29.8 |
| 20260505174000 | 59 | 209 | 12.0 | 22.0 | 0.00 | 0.00 | 0.00 | 79 | 29.8 |
| 20260505173500 | 60 | 219 | 17.0 | 19.0 | 0.00 | 0.00 | 0.00 | 79 | 29.8 |
| 20260505173000 | 60 | 231 | 11.0 | 11.0 | 0.00 | 0.00 | 0.00 | 79 | 29.8 |
| 20260505172500 | 60 | 202 | 10.0 | 19.0 | 0.00 | 0.00 | 0.00 | 79 | 29.9 |
| 20260505172000 | 60 | 214 | 7.0 | 16.0 | 0.00 | 0.00 | 0.00 | 79 | 29.8 |
| 20260505171500 | 59 | 227 | 10.0 | 18.0 | 0.00 | 0.00 | 0.00 | 80 | 29.9 |
| 20260505171000 | 59 | 218 | 14.0 | 20.0 | 0.00 | 0.00 | 0.00 | 80 | 29.9 |
| 20260505170500 | 59 | 220 | 11.0 | 20.0 | 0.00 | 0.00 | 0.00 | 80 | 29.9 |
| 20260505170000 | 59 | 208 | 7.0 | 16.0 | 0.00 | 0.00 | 0.00 | 81 | 29.9 |
| 20260505165500 | 58 | 193 | 16.0 | 20.0 | 0.00 | 0.00 | 0.00 | 81 | 29.9 |
| 20260505165000 | 58 | 216 | 14.0 | 20.0 | 0.00 | 0.00 | 0.00 | 82 | 29.9 |
| 20260505164500 | 58 | 206 | 20.0 | 20.0 | 0.00 | 0.00 | 0.00 | 81 | 29.9 |
| 20260505164000 | 59 | 194 | 10.0 | 15.0 | 0.00 | 0.00 | 0.00 | 81 | 29.9 |
| 20260505163501 | 58 | 214 | 14.0 | 21.0 | 0.00 | 0.00 | 0.00 | 81 | 29.9 |
| 20260505163000 | 59 | 201 | 13.0 | 21.0 | 0.00 | 0.00 | 0.00 | 81 | 29.9 |
| 20260505162500 | 60 | 162 | 7.0 | 14.0 | 0.00 | 0.00 | 0.00 | 79 | 29.9 |
| 20260505162000 | 59 | 217 | 11.0 | 17.0 | 0.00 | 0.00 | 0.00 | 81 | 29.9 |
| 20260505161500 | 58 | 218 | 12.0 | 17.0 | 0.00 | 0.00 | 0.00 | 81 | 29.9 |
| 20260505161000 | 58 | 207 | 13.0 | 20.0 | 0.00 | 0.00 | 0.00 | 82 | 29.9 |
| 20260505160500 | 58 | 206 | 11.0 | 19.0 | 0.00 | 0.00 | 0.00 | 82 | 29.9 |
| 20260505153001 | 58 | 190 | 10.0 | 14.0 | 0.00 | 0.00 | 0.00 | 82 | 29.9 |
| 20260505152500 | 58 | 202 | 12.0 | 15.0 | 0.00 | 0.00 | 0.00 | 82 | 29.9 |
| 20260505152000 | 58 | 216 | 9.0 | 14.0 | 0.00 | 0.00 | 0.00 | 82 | 29.9 |
| 20260505151500 | 59 | 206 | 14.0 | 15.0 | 0.00 | 0.00 | 0.00 | 81 | 29.9 |
| 20260505151000 | 59 | 228 | 7.0 | 12.0 | 0.00 | 0.00 | 0.00 | 82 | 29.9 |
| 20260505150500 | 59 | 194 | 11.0 | 14.0 | 0.00 | 0.00 | 0.00 | 82 | 29.9 |
| 20260505140500 | 58 | 210 | 10.0 | 13.0 | 0.00 | 0.00 | 0.00 | 84 | 29.9 |
| 20260505124500 | 56 | 206 | 11.0 | 16.0 | 0.00 | 0.00 | 0.00 | 87 | 29.9 |
| 20260505124000 | 56 | 221 | 8.0 | 14.0 | 0.00 | 0.00 | 0.00 | 88 | 29.9 |
| 20260505123500 | 56 | 215 | 7.0 | 9.0 | 0.00 | 0.00 | 0.00 | 89 | 29.9 |
| 20260505123000 | 56 | 206 | 10.0 | 12.0 | 0.00 | 0.00 | 0.00 | 89 | 29.9 |
| 20260505122500 | 56 | 201 | 9.0 | 11.0 | 0.00 | 0.00 | 0.00 | 88 | 29.9 |
| 20260505122000 | 56 | 208 | 12.0 | 13.0 | 0.00 | 0.00 | 0.00 | 88 | 29.9 |
| 20260505121500 | 56 | 173 | 4.0 | 13.0 | 0.00 | 0.00 | 0.00 | 88 | 29.9 |
| 20260505121001 | 56 | 212 | 4.0 | 8.0 | 0.00 | 0.00 | 0.00 | 89 | 29.9 |
| 20260505115500 | 56 | 226 | 11.0 | 13.0 | 0.00 | 0.00 | 0.00 | 89 | 29.9 |
| 20260505112500 | 55 | 211 | 11.0 | 14.0 | 0.00 | 0.00 | 0.00 | 90 | 29.9 |
| 20260505112000 | 55 | 167 | 3.0 | 15.0 | 0.00 | 0.00 | 0.00 | 91 | 29.9 |
| 20260505111000 | 55 | 216 | 7.0 | 11.0 | 0.00 | 0.00 | 0.00 | 91 | 29.9 |
| 20260505110500 | 55 | 213 | 6.0 | 12.0 | 0.00 | 0.00 | 0.00 | 91 | 29.9 |
| 20260505102000 | 54 | 210 | 9.0 | 10.0 | 0.00 | 0.00 | 0.00 | 92 | 29.8 |
| 20260505100500 | 54 | 214 | 9.0 | 12.0 | 0.00 | 0.00 | 0.00 | 92 | 29.8 |
| 20260505095000 | 54 | 215 | 8.0 | 11.0 | 0.00 | 0.00 | 0.00 | 92 | 29.8 |
| 20260505092500 | 54 | 254 | 5.0 | 10.0 | 0.00 | 0.00 | 0.00 | 92 | 29.8 |
| 20260505092000 | 53 | 239 | 6.0 | 11.0 | 0.00 | 0.00 | 0.00 | 92 | 29.8 |
| 20260505090000 | 54 | 195 | 8.0 | 10.0 | 0.00 | 0.00 | 0.00 | 91 | 29.8 |
| 20260505085000 | 54 | 232 | 6.0 | 13.0 | 0.00 | 0.00 | 0.00 | 91 | 29.8 |
| 20260505084500 | 54 | 202 | 6.0 | 12.0 | 0.00 | 0.00 | 0.00 | 91 | 29.8 |
| 20260505084000 | 54 | 200 | 8.0 | 12.0 | 0.00 | 0.00 | 0.00 | 91 | 29.8 |
| 20260505082500 | 54 | 211 | 10.0 | 14.0 | 0.00 | 0.00 | 0.00 | 90 | 29.8 |
| 20260505081000 | 54 | 248 | 13.0 | 14.0 | 0.00 | 0.00 | 0.00 | 90 | 29.8 |
| 20260505074500 | 54 | 198 | 5.0 | 11.0 | 0.00 | 0.00 | 0.00 | 89 | 29.8 |
| 20260505074000 | 54 | 209 | 11.0 | 12.0 | 0.00 | 0.00 | 0.00 | 89 | 29.8 |
| 20260505073500 | 54 | 190 | 6.0 | 14.0 | 0.00 | 0.00 | 0.00 | 89 | 29.8 |
| 20260505073000 | 54 | 210 | 9.0 | 13.0 | 0.00 | 0.00 | 0.00 | 89 | 29.8 |
| 20260505072500 | 54 | 207 | 9.0 | 17.0 | 0.00 | 0.00 | 0.00 | 88 | 29.8 |